Weather History for Victoria, BC

Change the Weather History Date:

Tuesday, December 4, 2012

  Actual Average Record
Temperature  
Mean Temperature 49 °F -  
Max Temperature 56 °F 44 °F 57 °F (2007)
Min Temperature 42 °F 33 °F 22 °F (2013)
Degree Days  
Heating Degree Days 16    
Moisture  
Dew Point 41 °F    
Average Humidity 76    
Maximum Humidity 93    
Minimum Humidity 54    
Precipitation  
Precipitation 0.24 in 0.20 in - ()
Sea Level Pressure  
Sea Level Pressure 29.60 in    
Wind  
Wind Speed 15 mph ()    
Max Wind Speed 29 mph    
Max Gust Speed 40 mph    
Visibility 14.9 miles    
Events Rain    
Averages and records for this station are not official NWS values.
T = Trace of Precipitation, MM = Missing Value Source: Averaged Metar Reports

Daily Weather History Graph

Daily Weather History Graph

Search for Another Location

Airport:

Trip Planner

Search our weather history database for the weather conditions in past years. The results will help you decide how hot, cold, wet, or windy it might be!

Date:

Astronomy

Dec. 04, 2012 Rise Set
Actual Time 7:49 AM PST 4:18 PM PST
Civil Twilight 7:12 AM PST 4:55 PM PST
Nautical Twilight 6:33 AM PST 5:34 PM PST
Astronomical Twilight 5:55 AM PST 6:12 PM PST
Moon 10:32 PM PST (12/4) 11:28 AM PST (12/4)
Length of Visible Light 9h 42m
Length of Day
8h 29m
Waning Gibbous, 68% of the Moon is Illuminated
Dec 4
Waning Gibbous
Dec 6
Last Quarter
Dec 13
New
Dec 19
First Quarter
Dec 28
Full

Hourly Weather History & Observations

Time (PST) Temp. Windchill Dew Point Humidity Pressure Visibility Wind Dir Wind Speed Gust Speed Precip Events Conditions
12:00 AM 50.0 °F - 44.6 °F 82% 29.57 in 12.0 mi SSE 16.1 mph 21.9 mph N/A Rain Light Rain
1:00 AM 48.2 °F - 44.6 °F 87% 29.51 in 12.0 mi SE 20.7 mph 28.8 mph N/A Rain Light Rain
2:00 AM 48.2 °F - 44.6 °F 87% 29.44 in 5.0 mi SE 26.5 mph 33.4 mph N/A Rain Light Rain
3:00 AM 46.4 °F 38.1 °F 42.8 °F 87% 29.43 in 5.0 mi SE 24.2 mph 34.5 mph N/A Rain Light Rain
4:00 AM 47 °F - 43 °F 81% 29.42 in 12 mi SE 19.6 mph - - Rain Light Rain
4:00 AM 46.4 °F 38.7 °F 42.8 °F 87% 29.42 in 12.0 mi SE 20.7 mph 32.2 mph N/A Rain Light Rain
4:14 AM 48.2 °F - - N/A% - 12.0 mi SE 24.2 mph 32.2 mph N/A   Overcast
4:28 AM 48.2 °F - - N/A% - 12.0 mi SE 28.8 mph 35.7 mph N/A Rain Light Rain Showers
5:00 AM 48.2 °F - 44.6 °F 87% 29.44 in 8.0 mi SSE 17.3 mph 38.0 mph N/A Rain Light Rain Showers
5:36 AM 48.2 °F - - N/A% - 8.0 mi SE 19.6 mph 27.6 mph N/A Rain Light Rain Showers
6:00 AM 48.2 °F - 44.6 °F 87% 29.46 in 8.0 mi SSE 21.9 mph - N/A Rain Light Rain Showers
6:38 AM 48.2 °F - - N/A% - 12.0 mi SSE 13.8 mph 20.7 mph N/A   Scattered Clouds
7:00 AM 50.0 °F - 44.6 °F 82% 29.51 in 15.0 mi South 12.7 mph 23.0 mph N/A   Partly Cloudy
7:16 AM 51.8 °F - - N/A% - 15.0 mi SW 20.7 mph 28.8 mph N/A   Partly Cloudy
8:00 AM 51.8 °F - 37.4 °F 58% 29.54 in 15.0 mi WSW 27.6 mph 40.3 mph N/A   Partly Cloudy
9:00 AM 50.0 °F - 39.2 °F 66% 29.58 in 15.0 mi WSW 18.4 mph 25.3 mph N/A   Partly Cloudy
10:00 AM 51 °F - 39 °F 54% 29.65 in 19 mi SSW 15.0 mph - -   Partly Cloudy
10:00 AM 51.8 °F - 39.2 °F 62% 29.65 in 20.0 mi SSW 10.4 mph 28.8 mph N/A   Scattered Clouds
11:00 AM 51.8 °F - 39.2 °F 62% 29.68 in 20.0 mi South 16.1 mph 25.3 mph N/A   Scattered Clouds
11:33 AM 50.0 °F - - N/A% - 20.0 mi SW 11.5 mph 20.7 mph N/A Rain Light Rain Showers
12:00 PM 51.8 °F - 39.2 °F 62% 29.70 in 20.0 mi SW 15.0 mph 25.3 mph N/A   Scattered Clouds
12:33 PM 50.0 °F - - N/A% - 20.0 mi SW 11.5 mph 20.7 mph N/A Rain Light Rain Showers
1:00 PM 50.0 °F - 41.0 °F 71% 29.69 in 20.0 mi SSW 9.2 mph 20.7 mph N/A   Mostly Cloudy
2:00 PM 50.0 °F - 41.0 °F 71% 29.69 in 20.0 mi SW 11.5 mph 17.3 mph N/A   Mostly Cloudy
2:08 PM 51.8 °F - - N/A% - 20.0 mi WSW 11.5 mph - N/A Rain Light Rain Showers
2:34 PM 50.0 °F - - N/A% - 20.0 mi WSW 10.4 mph 20.7 mph N/A   Mostly Cloudy
3:00 PM 48.2 °F - 37.4 °F 66% 29.70 in 20.0 mi SW 11.5 mph 24.2 mph N/A Rain Light Rain Showers
3:23 PM 46.4 °F 41.5 °F - N/A% - 20.0 mi SSW 10.4 mph - N/A   Mostly Cloudy
4:00 PM 47 °F - 39 °F 65% 29.68 in 19 mi South 6.9 mph - - Rain Light Rain Showers
4:00 PM 46.4 °F 42.4 °F 39.2 °F 76% 29.68 in 20.0 mi South 8.1 mph - N/A Rain Light Rain Showers
5:00 PM 48.2 °F - 39.2 °F 71% 29.67 in 20.0 mi South 15.0 mph - N/A Rain Light Rain Showers
6:00 PM 46.4 °F 40.4 °F 39.2 °F 76% 29.63 in 20.0 mi SSW 13.8 mph - N/A Rain Light Rain Showers
6:20 PM 46.4 °F 41.5 °F - N/A% - 20.0 mi SSW 10.4 mph - N/A   Mostly Cloudy
6:26 PM 46.4 °F 41.1 °F - N/A% - 20.0 mi SSW 11.5 mph - N/A Rain Light Rain Showers
7:00 PM 46.4 °F 41.5 °F 41.0 °F 81% 29.65 in 20.0 mi SSE 10.4 mph - N/A Rain Light Rain Showers
7:54 PM 44.6 °F 38.8 °F - N/A% - 4.0 mi WSW 11.5 mph - N/A Rain Heavy Rain Showers
8:00 PM 42.8 °F 34.8 °F 41.0 °F 93% 29.69 in 5.0 mi SW 17.3 mph - N/A Rain Rain Showers
9:00 PM 42.8 °F 36.6 °F 39.2 °F 87% 29.68 in 15.0 mi SSW 11.5 mph - N/A Rain Light Rain Showers
9:44 PM 42.8 °F 35.1 °F - N/A% - 15.0 mi South 16.1 mph 21.9 mph N/A   Mostly Cloudy
9:55 PM 42.8 °F 38.0 °F - N/A% - 15.0 mi SW 8.1 mph 20.7 mph N/A Rain Light Rain Showers
10:00 PM 43 °F - 40 °F 84% 29.72 in 7 mi SW 8.1 mph - - Rain Heavy Rain Showers
10:00 PM 42.8 °F 36.2 °F 39.2 °F 87% 29.72 in 8.0 mi WSW 12.7 mph 18.4 mph N/A Rain Rain Showers
10:40 PM 42.8 °F 38.0 °F - N/A% - 15.0 mi SSW 8.1 mph - N/A   Mostly Cloudy
11:00 PM 42.8 °F 35.4 °F 35.6 °F 76% 29.73 in 15.0 mi SW 15.0 mph - N/A   Scattered Clouds
11:44 PM 44.6 °F 38.1 °F - N/A% - 15.0 mi WSW 13.8 mph 23.0 mph N/A Rain Light Rain Showers